Content
SEND FEEDBACK

Daily
Averages
Monthly
Summary
Canada

ST. HILARION, QUEBEC


Home > North America > Canada > Quebec
Elevation: 1350 feet     Latitude: 47 36N     Longitude: 70 24W

WEATHER
 
SELECT A DAY
Number of Records: 138,930;   Date Range: 2/29/96 - 12/18/14
 
SHARE

PRINT THIS DATA

[ ← Previous Day ]
WEATHER ALMANAC - JANUARY 23, 2013
[ Next Day → ]
[ °C ]   °F
Weather ElementAverageHighLow
Temperature-10.7 °F-7 °F (1:00 am)-14.3 °F (10:00 am)
Dewpoint-16.3 °F-13.2 °F (11:00 pm)-20.7 °F (4:00 am)
Humidity74.3 %80 % (8:00 am)57 % (1:00 am)
Barometer29.93 in29.99 in (10:00 am)29.89 in (9:00 pm)
Wind Speed21.2 mph31.1 mph (4:00 pm)
Wind Gust43.7 mph (4:00 pm)
Weather ElementAverage
Wind DirectionSSW (216.2 °)

Weather ElementTotal
Precipitation---
Heating Degree Days75.7 (Base 65)
Averaged from 26 records on January 23, 2013
WEATHER CONDITIONS BREAKOUT
WIND DIRECTION BREAKOUT
WEATHER BY HOUR - JANUARY 23, 2013
[ °C ]   °F
Local TimeTemperatureDewpointHumidityBarometerVisibilityWind DirectionWind SpeedGust SpeedPrecipitationEventsConditions
1:00 AM-7.0 °F-14.0 °F57 %29.92 inENE (60°)5.8 mph
1:00 AM-7.2 °F-14.3 °F71 %29.92 inENE (60°)5.8 mph
2:00 AM-7.6 °F-15.3 °F69 %29.94 inNorth (360°)4.6 mph
4:00 AM-11.0 °F-20.7 °F62 %29.95 inSSE (160°)3.5 mph
5:00 AM-10.3 °F-16.2 °F75 %29.95 inWSW (250°)10.4 mph
6:00 AM-11.7 °F-17.5 °F76 %29.96 inSW (220°)16.1 mph
7:00 AM-10.3 °F-16.6 °F74 %29.95 inWest (260°)6.9 mph
7:00 AM-10.0 °F-17.0 °F59 %29.95 inWest (260°)6.9 mph
8:00 AM-13.2 °F-17.9 °F80 %29.96 inSW (220°)21.9 mph29.9 mph
9:00 AM-14.1 °F-18.8 °F79 %29.97 inSW (220°)24.2 mph29.9 mph
10:00 AM-14.3 °F-18.8 °F80 %29.99 inSW (230°)23.0 mph28.8 mph
11:00 AM-13.7 °F-18.4 °F80 %29.97 inSW (220°)23.0 mph29.9 mph
12:00 PM-13.0 °F-18.0 °F78 %29.96 inSW (220°)25.3 mph33.4 mph
1:00 PM-13.2 °F-18.4 °F77 %29.93 inSW (220°)26.5 mph34.5 mph
1:00 PM-13.0 °F-18.0 °F65 %29.93 inSW (220°)26.5 mph
2:00 PM-11.7 °F-17.5 °F76 %29.94 inSW (220°)26.5 mph36.8 mph
3:00 PM-11.4 °F-17.1 °F76 %29.92 inSW (220°)28.8 mph36.8 mph
4:00 PM-10.5 °F-15.9 °F77 %29.91 inSW (220°)31.1 mph43.7 mph
5:00 PM-10.3 °F-15.5 °F78 %29.92 inSW (230°)29.9 mph35.7 mph
6:00 PM-9.8 °F-14.6 °F79 %29.91 inSW (230°)29.9 mph39.1 mph
7:00 PM-8.9 °F-13.9 °F79 %29.91 inSW (220°)29.9 mph40.3 mph
7:00 PM-9.0 °F-14.0 °F68 %29.91 inSW (220°)29.9 mph
8:00 PM-9.8 °F-15.0 °F78 %29.91 inSW (220°)29.9 mph36.8 mph
9:00 PM-9.4 °F-14.3 °F79 %29.89 inSW (220°)28.8 mph38.0 mph
10:00 PM-9.2 °F-13.9 °F80 %29.90 inSW (220°)28.8 mph35.7 mph
11:00 PM-8.5 °F-13.2 °F80 %29.90 inSW (220°)27.6 mph36.8 mph
Hourly data recorded from CWST, located miles away from St. Hilarion, Quebec







STORIES FROM OUR PARTNERS